Regional Weather Roundup
Issued by NWS

Home | Current Version | Previous Version | Graphics & Text | Print | Product List | Glossary On
Versions: 1 2 3 4 5 6 7 8 9 10 11 12 13 14 15 16 17 18 19 20 21 22 23 24 25 26 27 28 29 30 31 32 33 34 35 36 37 38 39 40 41 42 43 44 45 46 47 48 49 50
000
ASUS45 KPSR 241410
RWRAZ

ARIZONA REGIONAL HOURLY WEATHER ROUNDUP
NATIONAL WEATHER SERVICE PHOENIX AZ
700 AM MST THU JUL 24 2014

NOTE: FAIR INDICATES FEW OR NO CLOUDS BELOW 12,000 FEET WITH NO
SIGNIFICANT WEATHER AND/OR OBSTRUCTIONS TO VISIBILITY.

AZZ001>003-036-241500-
NORTHWEST ARIZONA

CITY           SKY/WX    TMP DP  RH WIND       PRES   REMARKS
BULLHEAD CITY  SUNNY     90  36  14 CALM      29.82R
KINGMAN        MOSUNNY   79  33  19 CALM      30.04R
$$

AZZ004>008-015-016-018-241500-
NORTH CENTRAL ARIZONA

CITY           SKY/WX    TMP DP  RH WIND       PRES   REMARKS
GRAND CANYON   CLOUDY    71  51  49 CALM      30.34R
WILLIAMS       CLOUDY    72  50  46 SE9       30.41R
PRESCOTT       MOSUNNY   77  52  41 S5        30.22R
FLAGSTAFF      CLOUDY    65  52  62 CALM      30.39R
PAYSON         PTSUNNY   75  54  46 CALM      30.26R
PAGE           PTSUNNY   85  51  31 S10       30.14R
$$

AZZ009>014-017-241500-
NORTHEAST ARIZONA

CITY           SKY/WX    TMP DP  RH WIND       PRES   REMARKS
WINSLOW        CLOUDY    73  59  61 SE13      30.24R
SAINT JOHNS    CLOUDY    72  56  57 SE6       30.31R
WINDOW ROCK    CLOUDY    64  49  57 CALM      30.41S
SHOW LOW       CLOUDY    72  41  33 S16       30.37R
$$

AZZ023-241500-
GREATER PHOENIX AREA

CITY           SKY/WX    TMP DP  RH WIND       PRES   REMARKS
PHOENIX        CLOUDY    95  62  33 E7        29.86R
BUCKEYE          N/A     95  59  30 E12       29.85R
GLENDALE       PTSUNNY   93  63  36 N6        29.88R
LUKE AFB       NOT AVBL
DEER VALLEY    PTSUNNY   91  61  36 NE3       29.89R
SCOTTSDALE     PTSUNNY   92  63  38 N5        29.91R
MESA-FALCON    MOSUNNY   91  61  35 N12       29.88R
MESA-GATEWAY   MOSUNNY   93  61  33 SE5       29.91R
CHANDLER       PTSUNNY   91  66  43 CALM        N/A
$$

AZZ027-028-241500-
SOUTHWEST MARICOPA COUNTY AND PINAL COUNTY

CITY           SKY/WX    TMP DP  RH WIND       PRES   REMARKS
CASA GRANDE    MOSUNNY   90  63  40 CALM      29.90S
GILA BEND      PTSUNNY   97  55  24 SE3       29.83
$$

AZZ503-504-507>509-241500-
SOUTHEAST ARIZONA

CITY           SKY/WX    TMP DP  RH WIND       PRES   REMARKS
TUCSON         SUNNY     84  61  45 SE9       30.02R
DAVIS-MONTHAN  SUNNY     85  55  34 SE3       30.00R
RYAN FIELD       N/A     81  68  65 CALM      29.99S
SIERRA VISTA   CLOUDY    77  52  41 E3        30.19R
DOUGLAS        SUNNY     75  51  43 N5        30.15R
SAFFORD        SUNNY     81  55  40 E7        30.09R
$$

AZZ020-021-025-026-031-241500-
SOUTHWEST ARIZONA

CITY           SKY/WX    TMP DP  RH WIND       PRES   REMARKS
YUMA           PTSUNNY   92  43  18 CALM      29.76R
$$

CAZ031-033-041-043-047-048-061-241500-
SOUTHERN CALIFORNIA

CITY           SKY/WX    TMP DP  RH WIND       PRES   REMARKS
DOWNTOWN L.A.  SUNNY     67  61  81 CALM      29.87R
L.A. AIRPORT   SUNNY     70  62  76 CALM      29.88R
SAN DIEGO      PTSUNNY   70  65  84 CALM      29.87R
BURBANK        SUNNY     70  48  45 CALM      29.88R
ONTARIO        MOSUNNY   72  55  55 CALM      29.88S
RIVERSIDE      SUNNY     69  54  58 CALM      29.88S
PALM SPRINGS   SUNNY     86  51  29 CALM      29.78R
EL CENTRO NAS  PTSUNNY   86  57  37 SE3       29.73R
IMPERIAL       SUNNY     87  53  31 SE3       29.73R
BLYTHE         MOSUNNY   89  36  15 CALM      29.78R
NEEDLES        SUNNY     95  40  14 W3        29.82R
$$

NVZ020-UTZ003-241500-
SOUTHERN NEVADA-UTAH

CITY           SKY/WX    TMP DP  RH WIND       PRES   REMARKS
LAS VEGAS      MOSUNNY   90  31  12 S8        29.86R
SALT LAKE CITY CLOUDY    80  43  26 NW5       30.02R
$$

NMZ009-TXZ055-241500-
NEW MEXICO-WEST TEXAS

CITY           SKY/WX    TMP DP  RH WIND       PRES   REMARKS
ALBUQUERQUE    MOSUNNY   73  53  49 N6        30.34R
EL PASO        MOSUNNY   78  51  38 N6        30.20R
$$


........................KEY........................
SKY/WX - SKY CONDITION/WEATHER
TMP    - TEMPERATURE IN FAHRENHEIT
DP     - DEW POINT IN FAHRENHEIT
RH     - RELATIVE HUMIDITY IN PERCENT
WIND   - DIRECTION AND SPEED IN MILES PER HOUR (MPH)
VRB    - VARIABLE WIND DIRECTION
PRES   - MEAN SEA LEVEL PRESSURE IN INCHES OF MERCURY
         F - FALLING PRESSURE   R - RISING PRESSURE
         S - STEADY PRESSURE
VSB    - VISIBILITY IN MILES
HX     - HEAT INDEX IN FAHRENHEIT
WCI    - WIND CHILL INDEX IN FAHRENHEIT
TC     - TEMPERATURE IN CELSIUS WHICH IS ALSO KNOWN AS
         TEMPERATURE IN CENTIGRADE
AFB    - AIR FORCE BASE
         LUKE AFB IS LUKE AIR FORCE BASE
         DAVIS-MONTHAN IS DAVIS-MONTHAN AIR FORCE BASE
NAS    - NAVAL AIR STATION
         EL CENTRO NAS IS EL CENTRO NAVAL AIR STATION
N/A    - NOT AVAILABLE


USA.gov is the U.S. government's official web portal to all federal, state and local government web resources and services.